Location: Unspecified
(0.0000°N, 0.0000°E)
Time: 03:32:45
(UTC+00:00)

Explorer 7 - Pass Details

Date: 29 October 2021
Orbit: 483 x 675 km, 50.3° (Epoch: 27 November)

Event Time Altitude Azimuth Distance (km) Brightness Sun altitude
Exits shadow 04:02:06 59° 3° (N) 773 7.4 -24.7°
Maximum altitude 04:02:49 69° 53° (NE) 717 7.4 -24.5°
Drops below altitude 10° 04:07:40 10° 137° (SE) 2,100 10.5 -23.3°
Sets 04:10:02 0° 139° (SE) 3,006 11.5 -22.7°
